WXM80 ListenWXM80 Stop

You find our weather info also at:

UK Metoffice

WeatherCloud

Weather Underground

Northeastern Weather Network

AWEKAS

Citizen Weather Observer Program (CWOP)

HAMweather, WeatherForYou, PWS Weather


Weather Underground History page Text

Daily Summary for November 8, 2016 Units:  English    Metric   Both
« Previous Day
Next Day »
Daily Weekly Monthly Yearly Custom
  High: Low: Average:
Temperature: 65.6 °F 38.3 °F 51.4 °F
Dew Point: 42.9 °F 35.1 °F 38.8 °F
Humidity: 91 % 36 % 65 %
Wind Speed: 5.7 mph 0.0 mph 1.5 mph
Wind Gust: 8.1 mph - -
Wind:- - WSW
Pressure: 30.26 in 29.86 in -
Precipitation: 0.00 in    
Historical Graphs
 
 
Tabular Data for November 8, 2016
Time Temperature Dew Point Pressure Wind Wind Speed Wind Gust Humidity Rainfall Rate (Hourly)
00:00 38.3 °F 35.1 °F 30.26 in West 1.5 mph 2.3 mph 88 % 0.00 in
00:05 38.4 °F 35.4 °F 30.26 in West 2.0 mph 3.0 mph 89 % 0.00 in
00:10 38.6 °F 35.6 °F 30.26 in West 1.0 mph 3.0 mph 89 % 0.00 in
00:15 38.8 °F 36.1 °F 30.26 in West 1.0 mph 4.0 mph 90 % 0.00 in
00:20 39.0 °F 36.3 °F 30.26 in West 1.0 mph 3.0 mph 90 % 0.00 in
00:25 39.2 °F 36.5 °F 30.26 in West 1.0 mph 4.0 mph 90 % 0.00 in
00:30 39.4 °F 36.7 °F 30.26 in West 1.0 mph 3.0 mph 90 % 0.00 in
00:35 39.6 °F 36.9 °F 30.26 in West 2.0 mph 3.0 mph 90 % 0.00 in
00:40 39.7 °F 37.0 °F 30.25 in West 1.0 mph 3.0 mph 90 % 0.00 in
00:45 39.8 °F 37.1 °F 30.26 in West 1.0 mph 4.0 mph 90 % 0.00 in
00:50 39.9 °F 37.2 °F 30.26 in West 1.0 mph 2.0 mph 90 % 0.00 in
00:55 39.9 °F 37.2 °F 30.26 in West 1.0 mph 2.0 mph 90 % 0.00 in
01:00 40.0 °F 37.3 °F 30.25 in West 1.4 mph 2.3 mph 90 % 0.00 in
01:05 40.0 °F 37.3 °F 30.25 in West 1.0 mph 3.0 mph 90 % 0.00 in
01:10 40.1 °F 37.4 °F 30.25 in West 2.0 mph 3.0 mph 90 % 0.00 in
01:15 40.1 °F 37.4 °F 30.25 in West 1.0 mph 4.0 mph 90 % 0.00 in
01:20 40.2 °F 37.5 °F 30.25 in West 2.0 mph 3.0 mph 90 % 0.00 in
01:25 40.3 °F 37.6 °F 30.25 in West 2.0 mph 5.0 mph 90 % 0.00 in
01:30 40.4 °F 37.7 °F 30.24 in West 2.0 mph 4.0 mph 90 % 0.00 in
01:35 40.4 °F 37.7 °F 30.24 in West 2.0 mph 5.0 mph 90 % 0.00 in
01:40 40.5 °F 37.5 °F 30.24 in West 2.0 mph 4.0 mph 89 % 0.00 in
01:45 40.6 °F 37.6 °F 30.24 in West 1.0 mph 4.0 mph 89 % 0.00 in
01:50 40.7 °F 37.7 °F 30.24 in West 2.0 mph 4.0 mph 89 % 0.00 in
01:55 41.0 °F 37.7 °F 30.24 in West 1.0 mph 4.0 mph 88 % 0.00 in
02:00 41.3 °F 37.7 °F 30.24 in West 1.8 mph 3.5 mph 87 % 0.00 in
02:05 41.5 °F 37.6 °F 30.24 in West 2.0 mph 4.0 mph 86 % 0.00 in
02:10 41.7 °F 37.6 °F 30.24 in WNW 2.0 mph 5.0 mph 85 % 0.00 in
02:15 42.0 °F 37.5 °F 30.23 in WNW 1.0 mph 4.0 mph 84 % 0.00 in
02:20 42.3 °F 37.5 °F 30.23 in WNW 1.1 mph 2.3 mph 83 % 0.00 in
02:25 42.4 °F 37.6 °F 30.23 in WNW 1.0 mph 2.0 mph 83 % 0.00 in
02:30 42.5 °F 37.7 °F 30.23 in WNW 1.0 mph 3.0 mph 83 % 0.00 in
02:35 42.6 °F 37.8 °F 30.23 in WNW 0.5 mph 3.5 mph 83 % 0.00 in
02:40 42.6 °F 37.8 °F 30.23 in WNW 1.0 mph 2.0 mph 83 % 0.00 in
02:45 42.5 °F 38.0 °F 30.23 in Calm   2.0 mph 84 % 0.00 in
02:50 42.5 °F 38.0 °F 30.22 in WNW 1.2 mph 2.3 mph 84 % 0.00 in
02:55 42.4 °F 37.9 °F 30.23 in WNW 1.0 mph 4.0 mph 84 % 0.00 in
03:00 42.3 °F 37.5 °F 30.22 in WNW 1.3 mph 2.3 mph 83 % 0.00 in
03:05 42.3 °F 37.5 °F 30.22 in WNW 1.3 mph 3.5 mph 83 % 0.00 in
03:10 42.4 °F 37.6 °F 30.22 in WNW 1.4 mph 4.0 mph 83 % 0.00 in
03:16 42.4 °F 37.3 °F 30.22 in WNW 0.5 mph 3.5 mph 82 % 0.00 in
03:21 42.4 °F 37.3 °F 30.22 in WNW 0.7 mph 2.3 mph 82 % 0.00 in
03:26 42.5 °F 37.4 °F 30.22 in WNW 1.6 mph 3.5 mph 82 % 0.00 in
03:31 42.5 °F 37.4 °F 30.22 in WNW 0.3 mph 2.3 mph 82 % 0.00 in
03:36 42.5 °F 37.4 °F 30.22 in WNW 1.2 mph 2.3 mph 82 % 0.00 in
03:41 42.5 °F 37.4 °F 30.22 in WNW 1.4 mph 2.3 mph 82 % 0.00 in
03:46 42.5 °F 37.4 °F 30.22 in WSW 2.8 mph 3.5 mph 82 % 0.00 in
03:51 42.5 °F 38.0 °F 30.22 in West 2.2 mph 3.5 mph 84 % 0.00 in
03:56 42.5 °F 38.0 °F 30.22 in WSW 1.8 mph 4.6 mph 84 % 0.00 in
04:01 42.4 °F 38.2 °F 30.22 in WSW 0.5 mph 3.5 mph 85 % 0.00 in
04:06 42.3 °F 38.1 °F 30.21 in WSW 1.1 mph 2.3 mph 85 % 0.00 in
04:11 42.3 °F 38.4 °F 30.20 in WSW 1.7 mph 3.5 mph 86 % 0.00 in
04:17 42.2 °F 38.3 °F 30.20 in WSW 3.0 mph 4.0 mph 86 % 0.00 in
04:22 42.2 °F 38.3 °F 30.20 in WSW 0.2 mph 1.2 mph 86 % 0.00 in
04:27 42.1 °F 38.2 °F 30.20 in Calm     86 % 0.00 in
04:32 42.0 °F 37.8 °F 30.20 in Calm     85 % 0.00 in
04:37 41.9 °F 37.7 °F 30.20 in Calm     85 % 0.00 in
04:42 41.7 °F 37.5 °F 30.20 in Calm     85 % 0.00 in
04:47 41.5 °F 37.3 °F 30.20 in WSW 0.2 mph 2.3 mph 85 % 0.00 in
04:52 41.2 °F 37.0 °F 30.20 in WSW 1.9 mph 3.5 mph 85 % 0.00 in
04:57 41.1 °F 37.5 °F 30.20 in WSW 0.7 mph 2.3 mph 87 % 0.00 in
05:02 40.9 °F 37.6 °F 30.20 in WSW 2.0 mph 3.5 mph 88 % 0.00 in
05:08 40.8 °F 37.5 °F 30.20 in WSW 0.9 mph 2.3 mph 88 % 0.00 in
05:13 40.7 °F 37.7 °F 30.19 in WSW 0.2 mph 1.2 mph 89 % 0.00 in
05:18 40.6 °F 37.6 °F 30.19 in WSW 1.4 mph 2.3 mph 89 % 0.00 in
05:23 40.5 °F 37.5 °F 30.19 in WSW 1.3 mph 2.3 mph 89 % 0.00 in
05:28 40.5 °F 37.8 °F 30.19 in WSW 2.2 mph 3.5 mph 90 % 0.00 in
05:33 40.5 °F 37.8 °F 30.18 in WSW 2.5 mph 3.5 mph 90 % 0.00 in
05:38 40.5 °F 37.8 °F 30.18 in WSW 2.3 mph 4.0 mph 90 % 0.00 in
05:43 40.6 °F 38.2 °F 30.18 in West 1.7 mph 3.5 mph 91 % 0.00 in
05:48 40.6 °F 37.9 °F 30.18 in WSW 2.2 mph 3.5 mph 90 % 0.00 in
05:58 40.9 °F 38.5 °F 30.18 in West 1.8 mph 3.5 mph 91 % 0.00 in
06:04 41.1 °F 38.7 °F 30.18 in WNW 2.6 mph 4.6 mph 91 % 0.00 in
06:09 41.2 °F 38.5 °F 30.18 in WNW 1.5 mph 2.3 mph 90 % 0.00 in
06:14 41.3 °F 38.3 °F 30.18 in WNW 1.4 mph 2.3 mph 89 % 0.00 in
06:19 41.4 °F 37.8 °F 30.17 in WNW 1.4 mph 2.3 mph 87 % 0.00 in
06:24 41.5 °F 37.9 °F 30.17 in WNW 1.7 mph 4.0 mph 87 % 0.00 in
06:29 41.7 °F 37.8 °F 30.17 in WNW 1.1 mph 3.5 mph 86 % 0.00 in
06:34 41.8 °F 37.6 °F 30.17 in WNW 0.9 mph 2.3 mph 85 % 0.00 in
06:39 41.9 °F 37.7 °F 30.17 in WNW 1.5 mph 3.5 mph 85 % 0.00 in
06:44 42.0 °F 37.8 °F 30.17 in WNW 1.6 mph 3.5 mph 85 % 0.00 in
06:49 42.1 °F 37.9 °F 30.17 in West 0.9 mph 3.5 mph 85 % 0.00 in
06:55 42.2 °F 37.7 °F 30.17 in WNW 2.1 mph 3.5 mph 84 % 0.00 in
07:00 42.4 °F 37.9 °F 30.17 in WSW 0.7 mph 4.6 mph 84 % 0.00 in
07:05 42.5 °F 38.0 °F 30.17 in WSW 0.9 mph 2.3 mph 84 % 0.00 in
07:10 42.7 °F 38.5 °F 30.17 in West 1.8 mph 3.5 mph 85 % 0.00 in
07:15 42.8 °F 38.6 °F 30.17 in West 1.9 mph 3.5 mph 85 % 0.00 in
07:20 42.9 °F 38.7 °F 30.17 in West 1.7 mph 3.5 mph 85 % 0.00 in
07:25 43.2 °F 38.7 °F 30.17 in WSW 3.6 mph 5.0 mph 84 % 0.00 in
07:30 43.4 °F 38.6 °F 30.17 in WNW 2.4 mph 4.6 mph 83 % 0.00 in
07:35 43.8 °F 38.9 °F 30.17 in WNW 2.0 mph 4.0 mph 83 % 0.00 in
07:40 44.2 °F 39.3 °F 30.17 in West 2.0 mph 6.0 mph 83 % 0.00 in
07:45 44.6 °F 39.4 °F 30.17 in West 2.0 mph 5.0 mph 82 % 0.00 in
07:50 45.0 °F 39.9 °F 30.17 in West 2.0 mph 5.0 mph 82 % 0.00 in
07:55 45.4 °F 39.9 °F 30.17 in West 2.0 mph 7.0 mph 81 % 0.00 in
08:00 45.8 °F 40.3 °F 30.17 in West 2.3 mph 4.6 mph 81 % 0.00 in
08:05 46.2 °F 40.7 °F 30.16 in WSW 5.7 mph 7.0 mph 81 % 0.00 in
08:10 46.6 °F 41.1 °F 30.17 in West 3.4 mph 6.9 mph 81 % 0.00 in
08:16 46.9 °F 40.7 °F 30.16 in WSW 2.8 mph 5.8 mph 79 % 0.00 in
08:21 47.1 °F 40.9 °F 30.16 in West 1.9 mph 3.5 mph 79 % 0.00 in
08:26 47.3 °F 40.8 °F 30.16 in WSW 3.8 mph 6.9 mph 78 % 0.00 in
08:31 47.7 °F 41.2 °F 30.16 in WNW 1.6 mph 3.5 mph 78 % 0.00 in
08:36 48.2 °F 41.3 °F 30.16 in WSW 3.6 mph 5.0 mph 77 % 0.00 in
08:41 48.7 °F 41.5 °F 30.16 in West 2.2 mph 3.5 mph 76 % 0.00 in
08:46 49.3 °F 41.4 °F 30.16 in WSW 3.3 mph 5.8 mph 74 % 0.00 in
08:51 50.0 °F 42.0 °F 30.16 in West 0.5 mph 1.2 mph 74 % 0.00 in
08:56 50.5 °F 42.2 °F 30.16 in West 1.3 mph 4.0 mph 73 % 0.00 in
09:01 51.1 °F 41.3 °F 30.16 in WNW 2.7 mph 4.6 mph 69 % 0.00 in
09:07 51.5 °F 39.7 °F 30.16 in WNW 4.5 mph 6.9 mph 64 % 0.00 in
09:12 51.9 °F 39.3 °F 30.16 in West 3.9 mph 4.6 mph 62 % 0.00 in
09:17 52.3 °F 39.7 °F 30.16 in NW 3.4 mph 4.6 mph 62 % 0.00 in
09:22 52.8 °F 40.5 °F 30.16 in WSW 0.8 mph 3.5 mph 63 % 0.00 in
09:27 53.3 °F 41.4 °F 30.15 in WNW 0.8 mph 3.5 mph 64 % 0.00 in
09:32 53.9 °F 40.8 °F 30.15 in WNW 1.0 mph 3.5 mph 61 % 0.00 in
09:37 54.5 °F 41.3 °F 30.15 in Calm     61 % 0.00 in
09:42 54.9 °F 40.8 °F 30.16 in WSW 1.4 mph 4.0 mph 59 % 0.00 in
09:47 55.6 °F 41.0 °F 30.15 in Calm     58 % 0.00 in
09:52 56.1 °F 40.6 °F 30.15 in West 1.4 mph 2.3 mph 56 % 0.00 in
09:57 56.6 °F 40.1 °F 30.15 in West 0.5 mph 2.3 mph 54 % 0.00 in
10:03 57.2 °F 40.7 °F 30.15 in WNW 2.6 mph 3.5 mph 54 % 0.00 in
10:08 57.6 °F 39.6 °F 30.15 in WNW 1.8 mph 3.5 mph 51 % 0.00 in
10:13 58.2 °F 39.6 °F 30.15 in WNW 0.1 mph 1.0 mph 50 % 0.00 in
10:18 58.5 °F 40.4 °F 30.14 in WSW 0.5 mph 3.5 mph 51 % 0.00 in
10:23 58.8 °F 40.7 °F 30.13 in West 1.7 mph 4.6 mph 51 % 0.00 in
10:28 59.1 °F 39.4 °F 30.13 in West 1.2 mph 2.3 mph 48 % 0.00 in
10:33 59.2 °F 38.4 °F 30.13 in Calm   1.2 mph 46 % 0.00 in
10:38 59.3 °F 38.5 °F 30.12 in West 0.2 mph 3.5 mph 46 % 0.00 in
10:43 59.5 °F 39.2 °F 30.12 in WSW 4.5 mph 5.8 mph 47 % 0.00 in
10:48 59.5 °F 38.7 °F 30.12 in WNW 3.2 mph 4.6 mph 46 % 0.00 in
10:53 59.5 °F 38.1 °F 30.12 in WNW 0.6 mph 3.0 mph 45 % 0.00 in
10:58 59.4 °F 38.0 °F 30.12 in West 3.0 mph 3.5 mph 45 % 0.00 in
11:04 59.5 °F 38.7 °F 30.11 in NW 1.2 mph 3.5 mph 46 % 0.00 in
11:09 59.4 °F 37.5 °F 30.11 in WNW 0.4 mph 2.3 mph 44 % 0.00 in
11:14 59.3 °F 37.9 °F 30.11 in WSW 2.3 mph 3.5 mph 45 % 0.00 in
11:19 59.1 °F 37.8 °F 30.11 in SW 1.8 mph 3.5 mph 45 % 0.00 in
11:24 58.9 °F 37.6 °F 30.11 in WSW 2.6 mph 6.9 mph 45 % 0.00 in
11:29 58.6 °F 38.4 °F 30.10 in West 2.6 mph 3.5 mph 47 % 0.00 in
11:34 58.4 °F 38.2 °F 30.10 in SW 2.0 mph 8.1 mph 47 % 0.00 in
11:39 58.2 °F 36.9 °F 30.10 in West 3.6 mph 5.8 mph 45 % 0.00 in
11:44 58.1 °F 38.0 °F 30.09 in SSW 2.1 mph 3.5 mph 47 % 0.00 in
11:49 58.1 °F 38.5 °F 30.09 in WNW 2.9 mph 5.0 mph 48 % 0.00 in
11:55 58.3 °F 37.6 °F 30.08 in WSW 4.5 mph 6.9 mph 46 % 0.00 in
12:00 58.5 °F 37.2 °F 30.08 in West 3.8 mph 5.8 mph 45 % 0.00 in
12:05 58.7 °F 36.8 °F 30.08 in WNW 4.1 mph 8.1 mph 44 % 0.00 in
12:10 58.9 °F 36.4 °F 30.08 in WSW 3.2 mph 7.0 mph 43 % 0.00 in
12:15 59.0 °F 37.7 °F 30.07 in SSW 4.0 mph 5.8 mph 45 % 0.00 in
12:20 59.2 °F 37.9 °F 30.07 in WSW 4.6 mph 5.8 mph 45 % 0.00 in
12:25 59.3 °F 38.0 °F 30.07 in WSW 3.0 mph 5.0 mph 45 % 0.00 in
12:30 59.5 °F 38.1 °F 30.07 in WSW 2.0 mph 5.0 mph 45 % 0.00 in
12:35 59.6 °F 38.2 °F 30.07 in West 5.0 mph 7.0 mph 45 % 0.00 in
12:40 59.8 °F 37.2 °F 30.06 in West 3.0 mph 7.0 mph 43 % 0.00 in
12:45 60.0 °F 37.5 °F 30.06 in West 3.0 mph 6.0 mph 43 % 0.00 in
12:50 60.4 °F 38.9 °F 30.06 in WNW 1.0 mph 3.0 mph 45 % 0.00 in
12:55 60.8 °F 38.7 °F 30.06 in WNW 2.0 mph 6.0 mph 44 % 0.00 in
13:00 61.3 °F 38.6 °F 30.05 in WSW 2.8 mph 5.8 mph 43 % 0.00 in
13:05 61.8 °F 37.2 °F 30.05 in WNW 3.8 mph 5.8 mph 40 % 0.00 in
13:10 62.3 °F 38.3 °F 30.05 in WNW 1.8 mph 4.6 mph 41 % 0.00 in
13:16 62.7 °F 38.0 °F 30.05 in NW 1.6 mph 3.5 mph 40 % 0.00 in
13:21 63.1 °F 37.7 °F 30.04 in West 0.7 mph 3.5 mph 39 % 0.00 in
13:26 63.6 °F 38.2 °F 30.04 in WNW 0.5 mph 2.3 mph 39 % 0.00 in
13:31 64.0 °F 37.2 °F 30.04 in WSW 0.9 mph 2.3 mph 37 % 0.00 in
13:36 64.4 °F 38.2 °F 30.04 in WSW 2.5 mph 4.6 mph 38 % 0.00 in
13:41 64.7 °F 38.5 °F 30.04 in WSW 2.0 mph 3.5 mph 38 % 0.00 in
13:46 65.0 °F 38.8 °F 30.03 in Calm   1.2 mph 38 % 0.00 in
13:51 65.2 °F 37.6 °F 30.03 in WNW 3.6 mph 5.8 mph 36 % 0.00 in
13:56 65.3 °F 39.0 °F 30.03 in WNW 2.6 mph 7.0 mph 38 % 0.00 in
14:01 65.4 °F 38.4 °F 30.02 in WSW 2.1 mph 3.5 mph 37 % 0.00 in
14:07 65.6 °F 37.9 °F 30.02 in SW 0.8 mph 2.3 mph 36 % 0.00 in
14:12 65.6 °F 38.6 °F 30.02 in SW 3.6 mph 7.0 mph 37 % 0.00 in
14:17 65.5 °F 37.8 °F 30.02 in SW 2.7 mph 3.5 mph 36 % 0.00 in
14:22 65.4 °F 38.4 °F 30.02 in SW 0.8 mph 3.5 mph 37 % 0.00 in
14:27 65.2 °F 39.6 °F 30.01 in SW 2.4 mph 3.5 mph 39 % 0.00 in
14:32 65.0 °F 38.8 °F 30.02 in WSW 2.0 mph 3.0 mph 38 % 0.00 in
14:37 64.9 °F 38.0 °F 30.01 in WSW 3.0 mph 6.0 mph 37 % 0.00 in
14:42 64.7 °F 37.8 °F 30.01 in SW 1.2 mph 5.0 mph 37 % 0.00 in
14:47 64.5 °F 38.3 °F 30.01 in West 1.7 mph 5.8 mph 38 % 0.00 in
14:52 64.3 °F 37.5 °F 30.00 in SW 0.4 mph 1.2 mph 37 % 0.00 in
14:58 64.2 °F 38.0 °F 30.00 in WSW 2.7 mph 3.5 mph 38 % 0.00 in
15:03 64.1 °F 37.3 °F 30.00 in West 3.5 mph 5.8 mph 37 % 0.00 in
15:08 64.0 °F 37.9 °F 30.00 in WSW 2.8 mph 4.6 mph 38 % 0.00 in
15:13 63.9 °F 37.8 °F 30.00 in WSW 1.0 mph 3.5 mph 38 % 0.00 in
15:18 63.8 °F 37.7 °F 30.00 in West 2.3 mph 3.5 mph 38 % 0.00 in
15:23 63.7 °F 37.6 °F 29.99 in SW 0.8 mph 2.3 mph 38 % 0.00 in
15:33 63.4 °F 36.0 °F 29.99 in WSW 3.0 mph 4.6 mph 36 % 0.00 in
15:38 63.3 °F 36.6 °F 29.99 in WSW 0.2 mph 1.2 mph 37 % 0.00 in
15:43 63.1 °F 35.7 °F 29.99 in WSW 3.1 mph 3.5 mph 36 % 0.00 in
15:49 63.0 °F 35.6 °F 29.98 in WSW 0.7 mph 3.5 mph 36 % 0.00 in
15:54 62.9 °F 36.2 °F 29.98 in Calm     37 % 0.00 in
15:59 62.7 °F 36.0 °F 29.98 in WSW 0.7 mph 3.5 mph 37 % 0.00 in
16:04 62.6 °F 35.9 °F 29.98 in WSW 0.9 mph 2.3 mph 37 % 0.00 in
16:09 62.5 °F 37.2 °F 29.98 in WSW 1.5 mph 3.5 mph 39 % 0.00 in
16:19 62.1 °F 37.5 °F 29.98 in SW 0.1 mph 1.0 mph 40 % 0.00 in
16:24 61.8 °F 37.8 °F 29.98 in SW 0.3 mph 1.2 mph 41 % 0.00 in
16:29 61.5 °F 37.6 °F 29.97 in SW 0.1 mph 1.2 mph 41 % 0.00 in
16:34 61.2 °F 37.3 °F 29.97 in SW 0.5 mph 1.2 mph 41 % 0.00 in
16:39 60.9 °F 37.6 °F 29.97 in Calm     42 % 0.00 in
16:45 60.4 °F 38.4 °F 29.97 in Calm   1.2 mph 44 % 0.00 in
16:50 59.9 °F 37.9 °F 29.97 in SW 0.1 mph 1.2 mph 44 % 0.00 in
16:55 59.5 °F 37.6 °F 29.97 in SW 0.1 mph 1.2 mph 44 % 0.00 in
17:00 59.1 °F 38.3 °F 29.97 in Calm     46 % 0.00 in
17:05 58.5 °F 38.3 °F 29.97 in Calm     47 % 0.00 in
17:10 58.0 °F 37.3 °F 29.97 in SW 0.9 mph 1.2 mph 46 % 0.00 in
17:15 57.5 °F 36.9 °F 29.97 in Calm   2.0 mph 46 % 0.00 in
17:20 57.1 °F 37.0 °F 29.97 in Calm   1.0 mph 47 % 0.00 in
17:25 56.7 °F 37.7 °F 29.97 in Calm   1.0 mph 49 % 0.00 in
17:30 56.2 °F 36.8 °F 29.97 in Calm   1.2 mph 48 % 0.00 in
17:35 55.9 °F 36.5 °F 29.97 in Calm   1.0 mph 48 % 0.00 in
17:40 55.5 °F 36.1 °F 29.97 in Calm   2.0 mph 48 % 0.00 in
17:45 55.2 °F 36.4 °F 29.96 in Calm   1.0 mph 49 % 0.00 in
17:50 54.9 °F 36.1 °F 29.97 in Calm   1.0 mph 49 % 0.00 in
17:55 54.7 °F 36.4 °F 29.97 in Calm   2.0 mph 50 % 0.00 in
18:00 54.4 °F 36.6 °F 29.96 in SW 0.1 mph 1.2 mph 51 % 0.00 in
18:05 54.2 °F 36.5 °F 29.97 in Calm   2.0 mph 51 % 0.00 in
18:10 54.0 °F 36.3 °F 29.97 in Calm   3.0 mph 51 % 0.00 in
18:15 53.8 °F 36.6 °F 29.96 in Calm   2.0 mph 52 % 0.00 in
18:20 53.7 °F 37.4 °F 29.96 in Calm   1.0 mph 54 % 0.00 in
18:25 53.5 °F 37.3 °F 29.96 in Calm   2.0 mph 54 % 0.00 in
18:30 53.3 °F 37.6 °F 29.96 in Calm   1.0 mph 55 % 0.00 in
18:35 53.2 °F 38.4 °F 29.96 in Calm   1.0 mph 57 % 0.00 in
18:40 53.0 °F 39.0 °F 29.96 in SW 1.0 mph 1.0 mph 59 % 0.00 in
18:45 52.8 °F 38.9 °F 29.96 in WSW 2.0 mph 5.0 mph 59 % 0.00 in
18:50 52.7 °F 39.2 °F 29.95 in WSW 3.0 mph 5.0 mph 60 % 0.00 in
18:55 52.7 °F 39.6 °F 29.95 in WSW 3.0 mph 5.0 mph 61 % 0.00 in
19:00 52.9 °F 39.4 °F 29.96 in WSW 1.6 mph 3.5 mph 60 % 0.00 in
19:05 53.0 °F 39.5 °F 29.95 in WSW 2.0 mph 6.0 mph 60 % 0.00 in
19:10 53.2 °F 39.7 °F 29.95 in Calm   2.0 mph 60 % 0.00 in
19:15 53.3 °F 40.2 °F 29.95 in WSW 0.1 mph 1.0 mph 61 % 0.00 in
19:20 53.4 °F 40.3 °F 29.95 in Calm     61 % 0.00 in
19:25 53.4 °F 40.3 °F 29.95 in Calm     61 % 0.00 in
19:30 53.3 °F 39.8 °F 29.95 in Calm     60 % 0.00 in
19:35 53.2 °F 39.7 °F 29.94 in Calm     60 % 0.00 in
19:40 53.0 °F 39.9 °F 29.94 in Calm   1.0 mph 61 % 0.00 in
19:45 52.8 °F 40.1 °F 29.94 in Calm   1.0 mph 62 % 0.00 in
19:50 52.5 °F 40.3 °F 29.94 in Calm   1.0 mph 63 % 0.00 in
19:55 52.3 °F 40.1 °F 29.94 in Calm   1.0 mph 63 % 0.00 in
20:00 52.0 °F 39.8 °F 29.93 in Calm   1.2 mph 63 % 0.00 in
20:05 51.8 °F 39.6 °F 29.93 in WSW 0.2 mph 1.2 mph 63 % 0.00 in
20:10 51.5 °F 39.7 °F 29.92 in WSW 0.1 mph 1.0 mph 64 % 0.00 in
20:15 51.3 °F 39.5 °F 29.92 in WSW 0.3 mph 2.0 mph 64 % 0.00 in
20:21 51.1 °F 39.3 °F 29.93 in WSW 0.3 mph 1.2 mph 64 % 0.00 in
20:26 51.0 °F 39.6 °F 29.92 in WSW 0.5 mph 1.2 mph 65 % 0.00 in
20:31 50.8 °F 39.8 °F 29.92 in Calm   1.2 mph 66 % 0.00 in
20:36 50.7 °F 40.5 °F 29.92 in West 2.2 mph 5.8 mph 68 % 0.00 in
20:41 50.8 °F 41.4 °F 29.92 in WSW 1.7 mph 2.3 mph 70 % 0.00 in
20:46 51.0 °F 41.9 °F 29.92 in WSW 2.3 mph 3.5 mph 71 % 0.00 in
20:51 51.3 °F 42.2 °F 29.92 in WSW 1.8 mph 6.9 mph 71 % 0.00 in
20:56 51.5 °F 42.4 °F 29.92 in WSW 1.5 mph 3.5 mph 71 % 0.00 in
21:01 51.8 °F 42.7 °F 29.91 in SW 2.6 mph 6.0 mph 71 % 0.00 in
21:06 52.0 °F 42.5 °F 29.91 in SW 2.3 mph 3.5 mph 70 % 0.00 in
21:12 52.2 °F 42.7 °F 29.91 in SW 1.4 mph 2.3 mph 70 % 0.00 in
21:17 52.3 °F 42.8 °F 29.91 in SW 1.9 mph 2.3 mph 70 % 0.00 in
21:22 52.3 °F 42.4 °F 29.90 in SW 1.6 mph 2.3 mph 69 % 0.00 in
21:27 52.3 °F 42.4 °F 29.90 in SW 1.1 mph 2.3 mph 69 % 0.00 in
21:32 52.3 °F 42.0 °F 29.90 in SW 0.9 mph 2.3 mph 68 % 0.00 in
21:37 52.2 °F 42.0 °F 29.90 in SW 1.3 mph 2.3 mph 68 % 0.00 in
21:42 52.2 °F 42.3 °F 29.90 in SW 1.5 mph 3.5 mph 69 % 0.00 in
21:47 52.2 °F 42.3 °F 29.90 in SSW 0.9 mph 2.3 mph 69 % 0.00 in
21:52 52.2 °F 42.3 °F 29.90 in SW 1.5 mph 3.5 mph 69 % 0.00 in
21:57 52.2 °F 42.3 °F 29.89 in SW 1.7 mph 3.5 mph 69 % 0.00 in
22:03 52.2 °F 42.3 °F 29.89 in WSW 1.6 mph 3.5 mph 69 % 0.00 in
22:08 52.1 °F 42.2 °F 29.89 in WSW 1.2 mph 2.3 mph 69 % 0.00 in
22:13 52.1 °F 42.6 °F 29.89 in SW 2.1 mph 3.5 mph 70 % 0.00 in
22:18 52.0 °F 42.1 °F 29.89 in SW 2.7 mph 3.5 mph 69 % 0.00 in
22:23 51.9 °F 42.0 °F 29.88 in SW 2.3 mph 4.0 mph 69 % 0.00 in
22:28 51.9 °F 42.0 °F 29.89 in WSW 2.4 mph 3.5 mph 69 % 0.00 in
22:33 51.9 °F 42.0 °F 29.88 in WSW 1.7 mph 3.5 mph 69 % 0.00 in
22:38 51.9 °F 42.0 °F 29.88 in SW 2.2 mph 5.8 mph 69 % 0.00 in
22:43 51.9 °F 42.0 °F 29.88 in SSW 2.1 mph 3.5 mph 69 % 0.00 in
22:49 51.9 °F 42.4 °F 29.88 in SW 2.4 mph 5.8 mph 70 % 0.00 in
22:54 52.0 °F 42.9 °F 29.88 in WSW 2.1 mph 3.5 mph 71 % 0.00 in
22:59 51.9 °F 42.8 °F 29.88 in WSW 1.9 mph 3.5 mph 71 % 0.00 in
23:04 51.9 °F 42.8 °F 29.88 in SW 1.4 mph 2.3 mph 71 % 0.00 in
23:09 51.8 °F 42.3 °F 29.87 in SW 2.1 mph 4.6 mph 70 % 0.00 in
23:14 51.8 °F 41.6 °F 29.87 in SW 1.5 mph 3.5 mph 68 % 0.00 in
23:19 51.8 °F 41.2 °F 29.87 in SW 1.6 mph 3.5 mph 67 % 0.00 in
23:24 51.8 °F 40.8 °F 29.87 in SW 1.5 mph 2.0 mph 66 % 0.00 in
23:29 51.9 °F 40.9 °F 29.87 in SSW 0.5 mph 3.5 mph 66 % 0.00 in
23:34 51.9 °F 41.3 °F 29.87 in Calm     67 % 0.00 in
23:40 51.9 °F 41.3 °F 29.87 in Calm     67 % 0.00 in
23:45 51.7 °F 41.1 °F 29.87 in Calm     67 % 0.00 in
23:50 51.6 °F 41.0 °F 29.86 in SSW 0.1 mph 1.2 mph 67 % 0.00 in
23:55 51.4 °F 40.8 °F 29.86 in SSW 0.7 mph 2.3 mph 67 % 0.00 in
Crab Meadow Weather
Compliments of Weather Underground - 3 mb

Script developed by  Jim McMurry - jmcmurry@mwt.net Adapted for the template by  Wim van der Kuil - Leuven-Template.eu

Extremes: The longest period without measurable rainfall in the United States was 767 days at Bagdad, California.